ONEWEB-0130 (47276 NORAD) Tracking and Keplerian Element Data

This shows tracking and keplerian element data for the satellite.

Feedback or suggestion? Click here.




ElementValue
Catalog47276
NameONEWEB-0130
Epoch Orbit1700
Epoch Day106.25002315
Epoch Year2021
RAAN5.9856
Inclination87.924
Eccentricity0.000172
Argument of Perigee100.933
Mean Anonmoly150.368
Mean Motion13.21292743
Decay Rate1.3E-07
L11 47276U 20100U 21106.25002315 .00000013 00000-0 00000+0 0 9990
L22 47276 87.9240 5.9856 0001720 100.9330 150.3680 13.21292743 17002

Live tracking and technical data element details for ONEWEB-0130 (NORAD 47276). ONEWEB-0130 can be tracked NOW for your location showing map with azimuth and elevation plus other details from your city location.

Track the satellite on the map from your city or location and see movement details for azimuth, elevation, latitude, longitude, range, height, and movement on the map or in text.







IsCatalogInMostPopularTable: catalog: 47276, numindb: 36
Update: records affected: 1



GetName: 47276 ONEWEB-0130

Hit Count: updated at: Fri, 16 Apr 2021 10:53:33 GMT